SCP
0 0 0 0 0 0 -0 -0 -0 -0 0 0 0 0 0 0 0 -0 0 0 0 0 0 0 0 0 0 0 0 0 0 0 0 0 0 0 0 0 0 0 0 0 0 0 0 0 0 0 0 0 0 0 0 0
0 0 0 0 0 0 -0 -0 -0 -0 0 0 0 0 0 0 0 0 -0 0 0 0 0 0 0 0 0 0 0 0 0 0 0 0 0 0 0 0 0 0 0 0 0 0 0 0 0 0 0 0 0 0 0 0
0 0 0 0 0 0 0 -0 -0 0 -0 0 0 0 0 0 0 0 -0 0 0 0 0 0 0 0 0 0 0 0 0 0 0 0 0 0 0 0 0 0 0 0 0 0 0 0 0 0 0 0 0 0 0 0
0 0 0 0 0 0 0 -0 -0 -0 -0 -0 0 0 0 0 0 0 0 0 0 0 0 0 0 0 0 0 0 0 0 0 0 0 0 0 0 0 0 0 0 0 0 0 0 0 0 0 0 0 0 0 0 0
0 0 0 0 0 0 0 0 -0 -0 -0 -0 0 0 0 0 0 0 0 0 -0 0 0 0 0 0 0 0 0 0 0 0 0 0 0 0 0 0 0 0 0 0 0 0 0 0 0 0 0 0 0 0 0 0
0 0 0 0 0 0 0 0 -0 -0 -0 -0 0 0 0 0 0 0 0 0 0 -0 0 0 0 0 0 0 0 0 0 0 0 0 0 0 0 0 0 0 0 0 0 0 0 0 0 0 0 0 -0 0 0 0
0 0 0 0 0 0 0 0 0 0 0 -0 0 0 0 0 0 0 0 0 0 0 0 0 0 0 0 0 0 0 0 0 0 0 0 0 0 0 0 0 0 0 0 0 0 0 0 0 -0 -0 0 -0 -0 0
0 0 0 0 0 0 0 0 0 0 0 0 0 0 0 0 0 0 0 0 0 0 0 0 0 0 0 0 0 0 0 0 0 0 0 0 0 0 0 0 0 0 0 0 0 0 0 0 -0 -0 -0 -0 -0 -0
0 0 0 0 0 0 0 0 0 0 0 0 0 0 0 0 0 0 0 0 0 0 0 0 0 0 0 0 0 0 0 0 0 0 0 0 0 0 0 0 0 0 0 0 0 0 0 0 -0 -0 -0 -0 0 -0
0 0 0 0 0 0 0 0 0 0 0 0 0 0 0 0 0 0 0 0 0 0 0 0 0 0 0 0 0 0 0 0 0 0 0 0 0 0 0 0 0 0 0 0 0 0 0 -0 0 -0 -0 0 0 -0
0 0 0 0 0 0 0 0 0 0 0 0 0 0 0 0 0 0 0 0 0 0 0 0 0 0 0 0 0 0 0 0 0 0 0 0 0 0 0 0 0 0 0 0 0 0 0 -0 0 -0 0 -0 0 0
0 0 0 0 0 0 0 0 0 0 0 0 0 0 0 0 0 0 0 0 0 0 0 0 0 0 0 0 0 0 0 0 0 0 0 0 0 0 0 0 0 0 0 0 0 0 -0 -0 -0 -0 -0 0 0 0
0 0 0 0 0 0 0 0 0 0 0 0 0 0 0 0 0 0 0 0 0 0 0 0 0 0 0 0 0 0 0 0 0 0 0 0 0 0 0 0 0 0 0 0 0 0 -0 -0 -0 -0 -0 -0 0 -0
0 0 0 0 0 0 0 0 0 0 0 0 0 0 0 0 0 0 0 0 0 0 0 0 0 0 0 0 0 0 0 -0 -0 -0 0 0 0 0 0 0 0 0 0 0 -0 -0 -0 -0 -0 0 -0 -0 0 -0
0 0 0 0 0 0 0 0 0 0 0 0 0 0 0 0 0 0 0 0 0 0 0 0 0 0 0 0 0 -0 -0 0 -0 0 0 0 0 0 0 0 0 0 0 0 0 -0 -0 -0 -0 -0 -0 -0 -0 -0
0 0 0 0 0 0 0 0 0 0 0 0 0 0 0 0 0 0 0 0 0 0 0 0 0 0 0 0 0 -0 -0 -0 -0 -0 -0 -0 0 0 0 0 0 0 0 0 0 -0 -0 -0 -0 -0 -0 -0 -0 -0
0 0 0 0 0 0 0 0 0 0 0 0 0 0 0 0 0 0 0 0 0 0 0 0 0 0 0 0 -0 -0 -0 -0 -0 -0 -0 0 0 0 0 0 0 0 0 0 0 -0 -0 -0 -0 0 -0 -0 -0 -0
0 0 0 0 0 0 0 0 0 0 0 0 0 0 0 0 0 0 0 0 0 0 0 0 0 0 0 0 0 -0 -0 0 -0 -0 -0 0 0 0 0 0 0 0 0 -0 -0 -0 -0 -0 -0 0 0 0 0 -0
0 0 0 0 0 0 0 0 0 0 0 0 0 0 0 0 0 0 0 0 0 0 0 0 0 0 0 -0 0 0 -0 -0 -0 -0 0 0 0 0 0 0 0 0 0 0 -0 -0 -0 -0 -0 -0 0 0 0 0
0 0 0 0 0 0 0 0 0 0 0 0 0 0 0 0 0 0 0 0 0 0 0 0 0 0 0 -0 -0 -0 -0 0 -0 -0 -0 -0 0 0 0 0 0 -0 0 -0 -0 0 0 -0 -0 -0 -0 -0 0 0
0 0 0 0 0 0 0 0 0 0 0 0 0 0 0 0 0 0 0 0 0 0 0 0 0 0 0 0 0 -0 -0 -0 -0 0 -0 -0 0 0 0 0 -0 -0 0 -0 -0 -0 -0 -0 -0 0 -0 -0 -0 -0
0 0 0 0 0 0 0 0 0 0 0 0 0 0 0 0 0 0 0 0 0 0 0 0 0 0 0 0 0 -0 -0 -0 -0 -0 -0 -0 0 0 0 0 -0 -0 0 0 0 0 0 -0 0 -0 0 0 0 0
0 0 0 0 0 0 0 0 0 0 0 0 0 0 0 0 0 0 0 0 0 0 0 0 0 0 0 0 0 0 -0 0 -0 -0 0 0 0 0 0 0 -0 -0 -0 -0 0 0 0 -0 -0 -0 0 0 -0 0
0 0 0 0 0 0 0 0 0 0 0 0 0 0 0 0 0 0 0 0 0 0 -0 0 0 0 -0 -0 0 0 0 0 -0 0 0 -0 -0 -0 -0 -0 -0 -0 -0 0 0 0 0 0 -0 0 -0 -0 0 0
0 0 0 0 0 0 0 0 0 0 0 0 0 0 0 0 0 0 0 0 0 0 0 0 0 0 0 0 0 0 0 0 -0 0 -0 -0 -0 -0 0 -0 -0 -0 0 0 0 0 0 0 -0 -0 -0 -0 -0 -0
0 0 0 0 0 0 0 0 0 0 0 0 0 0 0 0 0 0 0 0 0 0 0 0 0 0 0 0 0 0 0 -0 -0 -0 0 0 -0 -0 -0 -0 -0 -0 0 0 0 0 -0 -0 -0 -0 -0 -0 -0 -0
0 0 0 0 0 0 0 0 0 0 0 0 0 0 0 0 0 0 0 0 0 0 0 0 0 0 0 0 0 0 0 0 0 0 -0 -0 -0 -0 0 0 0 0 0 0 0 -0 -0 -0 -0 -0 -0 -0 -0 -0
0 0 0 0 0 0 0 0 0 0 0 0 0 0 0 0 0 0 0 0 0 0 0 0 -0 -0 0 0 0 0 0 0 0 0 0 0 0 -0 -0 0 -0 -0 0 0 0 -0 -0 -0 -0 -0 -0 -0 -0 -0
0 0 0 0 0 0 0 0 0 0 0 0 0 0 0 0 0 0 0 0 0 0 0 -0 -0 -0 0 0 -0 -0 0 0 0 -0 -0 0 -0 0 0 0 0 0 0 -0 -0 0 0 0 0 0 -0 -0 0 0
0 0 0 0 0 0 0 -0 -0 0 0 0 0 -0 -0 -0 0 0 0 0 0 0 -0 -0 -0 -0 -0 -0 0 0 0 0 0 0 -0 -0 0 0 0 0 0 0 0 0 0 0 0 0 0 -0 -0 -0 -0 0
0 0 0 0 0 0 -0 -0 -0 -0 -0 -0 -0 0 0 0 -0 -0 0 -0 -0 -0 -0 -0 -0 -0 -0 0 0 0 0 0 -0 0 -0 -0 0 0 0 -0 -0 -0 -0 -0 -0 -0 -0 -0 -0 -0 0 0 0 0
0 0 0 0 0 -0 -0 -0 0 0 0 0 0 0 0 -0 -0 -0 -0 -0 -0 -0 -0 -0 0 0 0 0 0 0 0 -0 -0 -0 -0 0 0 0 0 -0 -0 -0 -0 -0 -0 -0 -0 -0 -0 -0 -0 0 0 0
0 0 0 0 0 0 0 0 0 0 0 0 0 -0 0 0 -0 -0 -0 -0 -0 -0 0 0 0 0 0 0 0 0 0 0 -0 -0 -0 -0 -0 0 0 0 0 0 0 0 0 -0 -0 -0 -0 -0 0 0 0 0
Wind_Speed_500mb
29 28 27 25 23 23 23 24 26 29 26 24 23 24 27 30 32 31 26 27 20 9 17 10 9 8 4 0 4 2 4 2 1 2 3 2 4 2 5 5 6 5 7 6 4 10 17 21 8 13 23 27 31 28
29 27 26 23 22 22 22 23 24 24 24 23 19 20 26 30 32 33 30 28 28 10 11 15 20 20 20 17 12 6 3 3 2 4 2 1 5 4 2 7 3 7 10 5 11 9 18 45 32 22 31 41 45 34
28 27 25 24 23 21 22 23 24 21 27 18 16 16 24 31 34 36 30 28 29 12 13 4 5 9 11 6 11 8 6 7 5 5 4 0 9 4 7 10 9 8 15 11 16 12 24 41 60 52 35 36 38 43
29 27 25 24 23 22 24 22 20 23 18 14 15 15 22 28 34 34 23 19 30 11 5 1 3 13 5 6 11 24 17 6 4 2 6 7 8 15 8 13 16 23 9 20 29 38 43 43 30 37 55 50 50 47
30 28 25 24 24 23 25 23 18 18 13 13 14 17 23 27 31 25 11 12 28 18 8 16 7 10 3 14 18 24 32 29 15 8 9 8 7 7 14 9 19 26 25 13 24 33 32 44 45 42 44 48 48 47
31 29 26 24 23 25 26 20 15 12 12 14 14 17 22 25 22 12 6 9 31 24 8 6 9 0 12 7 3 3 15 25 16 9 10 9 8 9 6 10 29 33 32 39 45 37 46 46 40 42 35 51 50 45
33 29 26 23 23 24 21 16 17 16 16 16 14 16 21 21 7 8 6 22 23 18 4 10 11 6 19 7 6 5 5 9 11 8 8 13 14 10 7 26 55 32 34 34 32 38 37 38 43 59 56 55 49 43
35 30 26 24 22 23 21 19 17 18 16 15 15 15 19 11 4 6 18 25 12 5 4 4 6 7 18 8 7 8 3 4 5 6 5 6 4 6 8 17 21 25 32 41 43 42 46 49 56 58 53 49 46 39
35 30 27 24 22 22 21 19 18 17 17 14 14 15 9 2 3 12 23 9 6 1 2 1 5 5 16 6 7 5 5 3 4 5 5 4 4 8 10 29 47 50 37 57 61 60 58 60 60 59 54 45 40 40
36 31 28 25 22 20 18 17 15 17 14 9 10 3 3 3 13 18 3 5 4 2 4 5 3 4 9 6 2 9 4 3 4 1 6 5 7 31 40 44 59 64 71 72 65 61 51 51 48 50 51 44 39 39
39 33 29 25 21 18 16 15 12 7 4 2 2 3 5 11 7 3 3 3 3 4 6 6 8 7 5 5 5 4 5 3 4 2 6 4 4 14 55 76 76 75 69 62 54 55 52 50 53 46 49 44 37 35
42 34 30 25 19 16 17 11 9 8 6 4 6 10 4 1 1 2 2 2 5 2 5 5 4 8 5 3 3 2 4 3 5 16 4 4 7 54 70 80 82 70 58 56 48 44 41 37 39 40 41 42 37 36
40 34 31 25 22 19 15 13 12 10 7 6 2 1 1 1 2 5 6 4 3 6 5 6 5 4 3 3 3 2 4 6 14 4 4 6 42 67 73 77 79 74 60 56 53 45 41 34 31 32 39 37 35 31
39 38 32 27 22 21 17 20 18 14 7 3 3 5 4 5 7 6 3 3 5 5 13 12 6 4 2 3 1 5 1 5 5 4 6 12 52 72 87 90 74 75 68 58 53 50 41 33 30 25 29 27 28 28
38 36 30 27 24 21 22 25 20 16 5 5 5 5 8 8 9 7 10 10 8 11 13 9 1 2 2 4 2 4 4 5 3 5 14 44 69 74 86 85 77 70 62 61 54 52 45 36 27 23 16 14 19 22
44 36 34 29 25 24 27 25 23 16 5 7 8 6 8 6 7 6 5 5 9 13 9 2 1 3 2 2 3 3 3 4 7 12 46 60 74 82 80 69 68 58 51 47 45 45 38 32 26 18 14 16 21 25
42 38 35 33 27 30 29 28 18 10 8 6 8 17 14 13 15 13 14 10 8 8 2 5 6 2 2 4 5 6 7 6 24 47 54 69 73 75 61 53 57 65 48 45 51 48 38 27 17 7 7 12 18 24
46 39 28 35 37 36 33 18 10 8 10 14 10 8 20 21 15 17 21 19 9 4 4 4 5 7 7 6 5 6 19 31 42 51 66 77 77 60 58 44 52 55 58 66 53 41 31 21 16 11 8 9 11 15
40 33 31 35 41 26 16 15 11 7 15 9 15 23 22 23 34 32 29 30 26 18 6 7 10 8 11 16 21 27 33 41 51 73 75 72 64 65 58 48 45 49 52 58 65 52 36 29 22 18 18 10 3 3
32 29 29 35 46 14 12 9 13 8 6 5 11 13 15 15 25 29 25 22 19 10 13 10 14 26 16 20 36 49 54 62 65 64 71 64 60 56 44 43 44 32 45 50 59 58 37 32 37 32 28 20 7 4
32 32 36 51 21 10 9 9 11 7 6 7 9 12 12 20 15 12 10 21 16 12 14 30 39 42 45 49 52 57 62 54 47 46 52 59 51 44 32 38 37 29 42 46 52 54 41 37 34 47 40 23 22 26
37 44 43 38 6 11 6 9 5 4 5 6 9 7 11 8 7 6 8 11 11 24 31 35 39 40 44 48 41 35 35 35 36 32 32 38 35 34 34 36 34 35 27 27 37 40 39 31 31 44 34 32 38 37
49 41 18 8 6 10 7 10 6 6 5 3 4 6 8 6 5 4 7 10 10 12 15 19 18 16 20 19 20 21 18 20 20 24 26 27 28 30 27 25 27 35 38 36 35 36 35 32 33 42 39 53 58 59
40 11 9 12 8 9 8 8 8 5 4 5 5 6 6 5 4 6 5 3 5 13 12 13 14 15 5 12 28 26 21 25 24 16 21 26 27 24 22 24 30 34 37 36 32 33 32 32 31 37 35 37 45 49
11 8 10 5 8 8 8 9 9 7 6 6 5 5 2 3 4 3 3 5 12 15 12 7 11 12 18 8 20 37 33 29 27 16 17 22 22 21 23 26 32 39 39 34 33 31 31 32 35 37 40 43 42 48
5 9 12 15 10 8 8 8 10 11 6 4 7 6 4 3 3 4 2 7 9 25 31 18 8 6 11 20 15 28 40 35 23 14 13 17 20 24 25 27 33 42 39 31 28 28 32 36 38 39 41 41 43 47
6 7 9 11 8 7 6 7 5 3 4 8 5 6 2 5 4 4 12 10 13 27 38 23 8 11 12 20 25 30 42 29 16 3 8 13 19 23 25 30 36 36 33 29 30 34 38 42 46 48 51 52 51 50
3 9 8 17 9 9 2 4 7 9 7 7 4 8 5 5 3 13 7 10 33 41 22 10 10 8 16 23 30 37 32 11 11 15 16 17 21 22 27 33 33 32 36 37 40 43 47 50 49 46 47 49 45 41
5 8 11 9 7 8 12 11 9 10 10 10 4 4 4 7 4 11 18 34 37 26 10 4 6 13 21 31 35 28 3 16 25 22 22 20 21 24 31 39 45 46 45 46 46 44 44 46 47 49 48 47 48 52
4 17 8 9 7 11 13 20 14 17 19 19 16 16 23 32 38 31 36 32 30 20 13 14 23 31 35 29 11 8 10 18 22 14 26 20 25 30 31 35 42 47 51 57 60 59 58 54 53 52 50 47 45 45
5 13 6 9 9 17 27 26 27 28 29 25 31 32 37 29 39 34 29 25 22 18 19 28 31 27 22 11 12 11 13 21 22 42 27 26 28 30 28 28 30 34 38 42 44 44 45 45 43 42 42 41 40 36
12 16 9 6 8 8 12 9 12 15 16 18 17 24 20 13 10 12 14 14 13 20 25 23 21 16 8 11 10 13 19 33 51 42 34 34 28 25 23 20 20 20 23 26 28 28 28 28 27 27 28 29 30 33
10 10 12 12 8 5 3 5 6 6 8 7 10 13 14 9 8 6 10 16 16 13 15 12 8 7 20 28 39 53 62 59 47 37 36 31 27 24 19 12 7 4 6 11 14 16 19 20 21 22 26 29 29 29
Wind_Direction_500mb
303 308 313 319 323 329 336 342 347 348 350 356 359 4 9 10 10 10 4 1 3 303 283 253 247 204 190 162 286 22 269 160 144 140 253 161 244 86 268 292 304 282 294 251 230 239 265 29 5 351 333 318 327 329
294 299 304 308 312 316 326 335 335 341 344 347 352 356 360 1 1 360 358 351 338 280 260 274 260 245 242 282 240 247 295 228 163 107 210 189 226 226 290 270 158 251 228 283 233 252 305 304 295 301 309 297 300 304
282 288 293 299 305 309 314 322 329 332 330 330 341 348 353 352 354 353 355 356 358 338 319 11 99 130 181 297 223 243 244 213 175 154 143 120 250 191 245 231 241 233 222 240 275 258 275 294 299 299 301 297 291 292
273 279 285 291 296 298 308 313 319 326 330 340 339 341 348 349 346 344 352 13 20 339 330 303 168 306 274 318 249 237 229 165 167 193 242 231 249 203 247 277 254 270 224 252 265 277 280 279 289 299 299 293 290 286
263 268 274 282 291 297 301 303 300 317 326 333 339 338 344 347 344 346 20 37 16 24 308 299 341 121 315 303 275 252 240 236 243 236 216 238 231 204 249 272 259 241 255 240 269 290 280 291 298 306 306 298 286 284
256 260 266 276 285 293 298 289 279 307 318 321 326 332 339 347 351 2 5 4 355 358 336 310 328 114 350 326 319 320 234 230 224 221 235 232 246 210 247 260 273 266 258 256 266 280 287 283 287 307 304 308 299 287
249 254 259 267 280 296 294 278 273 284 300 305 313 325 332 338 342 28 17 325 331 335 345 304 324 325 350 6 328 320 267 222 220 249 240 264 262 206 257 264 281 288 283 278 280 289 282 281 288 298 300 300 301 290
243 248 252 258 271 288 287 277 281 279 290 295 302 315 324 328 313 314 328 332 332 346 344 320 293 324 5 339 327 342 299 267 232 267 257 248 250 229 261 287 306 296 282 274 299 299 279 282 287 289 293 297 292 294
236 242 244 251 264 279 279 271 278 284 271 287 300 316 320 111 358 317 321 327 338 284 282 295 322 342 345 342 301 325 338 290 288 258 257 251 214 232 247 277 285 283 281 285 286 290 281 276 276 278 283 285 283 288
230 237 239 244 258 271 270 266 274 276 285 279 305 290 234 231 316 321 341 333 313 271 243 248 255 297 338 323 323 328 5 308 289 79 309 223 252 268 284 313 308 295 293 294 288 289 280 266 267 267 271 269 273 281
229 232 233 237 247 255 261 263 262 279 266 251 238 238 259 304 318 326 292 286 317 247 215 244 234 294 313 307 324 2 336 309 286 65 312 271 274 301 321 319 320 320 314 313 315 303 296 283 272 266 266 260 266 276
228 223 224 228 233 244 254 257 201 194 200 197 285 289 299 357 353 308 269 251 228 316 227 227 264 250 280 275 270 359 295 287 273 341 278 267 265 324 323 324 329 331 336 331 327 321 307 298 281 268 261 256 259 269
216 214 215 216 220 232 247 195 180 191 223 282 245 200 128 175 16 228 172 168 228 211 231 272 289 230 240 257 251 294 268 255 318 236 259 249 298 321 326 322 325 337 333 332 333 332 320 301 291 265 255 255 260 267
219 203 207 208 214 223 220 186 185 196 199 209 195 344 224 198 241 212 240 334 322 270 326 304 272 243 203 236 178 267 303 288 262 275 263 284 313 322 326 325 322 323 332 333 329 325 323 320 295 272 256 252 245 246
195 195 200 203 212 212 189 180 187 192 205 214 188 226 221 247 260 263 283 301 303 291 299 283 233 231 205 258 196 286 257 285 286 264 282 305 313 322 325 326 330 330 334 330 332 328 321 317 296 281 259 244 237 245
188 192 198 200 201 186 180 188 185 178 215 217 225 236 220 262 255 235 243 289 6 351 324 303 278 255 234 262 222 248 280 247 264 265 301 309 314 330 336 342 344 343 337 332 344 348 336 328 311 277 241 228 236 250
184 198 194 192 184 180 182 180 172 196 214 222 234 229 236 271 262 261 267 252 327 343 316 304 267 278 126 238 232 189 222 229 302 312 313 322 326 335 339 343 348 354 355 355 349 348 347 359 10 356 270 248 248 257
192 183 180 179 178 173 177 172 179 208 234 237 234 231 232 241 253 258 266 269 295 242 211 254 297 245 248 233 221 236 271 290 309 313 318 323 328 335 341 326 348 353 5 6 3 357 355 14 31 22 348 312 287 268
183 177 178 180 175 165 172 189 186 230 231 243 257 262 261 265 274 275 268 264 254 234 254 241 246 236 232 246 259 279 301 311 314 318 317 321 332 337 343 337 316 337 359 4 11 13 18 23 21 15 13 12 339 263
181 182 182 178 181 155 160 171 190 234 244 237 251 258 262 255 275 282 274 249 225 198 209 227 234 245 251 268 292 300 303 310 313 313 317 327 332 338 346 351 357 10 3 3 12 12 23 37 34 32 27 18 6 115
178 175 182 180 161 134 168 178 189 214 250 250 269 276 269 272 266 258 252 216 193 216 232 242 252 259 263 272 280 288 296 303 306 306 306 314 330 338 351 3 9 16 8 16 3 7 15 29 38 30 18 41 68 85
165 168 169 173 119 152 193 196 189 219 239 260 283 246 267 266 248 215 181 183 225 234 234 254 264 273 280 285 293 294 298 301 306 312 320 327 334 346 347 358 8 22 17 2 354 7 19 28 53 40 24 74 77 82
160 159 130 119 136 173 189 188 183 219 248 259 275 253 238 244 233 235 233 223 246 263 265 275 290 300 295 301 308 307 307 315 322 329 344 352 344 344 356 14 28 31 26 22 18 18 23 35 68 76 65 82 85 83
151 116 135 156 173 160 178 182 196 217 239 242 232 256 235 241 268 229 263 256 306 311 298 289 302 326 358 81 51 34 16 5 357 359 5 5 7 11 29 49 40 31 23 14 19 25 36 50 66 79 92 88 87 84
120 158 168 141 164 152 183 180 189 192 235 218 257 261 226 265 240 232 256 357 24 15 13 81 68 60 56 113 52 31 17 359 1 3 12 17 30 46 56 49 38 30 22 24 36 40 50 60 67 75 80 83 88 88
142 177 171 175 159 183 176 188 201 206 203 227 237 254 252 266 262 258 75 55 45 40 20 350 325 32 44 30 6 354 355 350 351 354 15 46 51 55 53 40 27 24 25 35 48 52 65 71 75 81 83 84 85 87
148 165 182 175 169 165 207 232 218 196 230 215 234 182 215 230 239 112 113 72 317 334 333 336 285 286 325 329 333 335 338 331 340 62 73 74 61 59 51 37 30 31 39 55 68 73 81 82 82 82 84 83 82 83
165 165 166 176 186 207 240 204 196 210 220 220 216 195 212 226 191 168 126 310 333 329 323 283 248 257 281 298 310 321 328 331 130 129 105 84 76 67 52 46 49 54 63 73 85 88 91 91 88 86 83 80 78 77
187 176 161 171 177 196 217 220 232 219 216 205 200 165 231 231 251 252 278 304 315 324 324 332 300 293 301 306 315 320 226 153 138 128 122 96 90 81 73 71 71 74 77 80 83 85 85 88 92 91 90 87 85 88
202 181 186 183 207 218 226 206 234 235 232 231 245 261 268 271 281 286 287 296 301 290 280 296 308 309 305 306 289 211 188 183 188 166 146 114 104 102 95 89 82 79 83 86 88 87 87 88 90 86 84 82 83 83
178 184 221 220 247 247 243 245 256 268 272 269 268 266 271 281 288 291 291 283 274 264 274 297 306 302 294 258 199 198 191 176 161 145 142 121 119 121 115 109 97 90 86 86 88 87 85 86 84 82 79 77 75 74
195 202 209 228 255 270 293 248 230 228 244 235 243 253 258 255 262 270 260 261 255 271 288 294 297 298 242 185 201 194 189 168 146 143 132 129 124 132 133 118 112 103 96 93 88 85 81 80 77 77 73 65 66 71
205 217 230 264 261 254 252 223 227 255 227 231 222 228 226 212 241 249 262 278 281 281 286 274 260 187 143 130 124 118 121 128 136 137 138 135 125 117 110 99 78 99 109 108 110 99 90 84 77 68 60 59 64 64
Wind_Speed_850mb
29 28 27 25 23 23 23 24 26 29 26 24 23 24 27 30 32 31 26 27 20 9 17 10 9 8 4 0 4 2 4 2 1 2 3 2 4 2 5 5 6 5 7 6 4 10 17 21 8 13 23 27 31 28
29 27 26 23 22 22 22 23 24 24 24 23 19 20 26 30 32 33 30 28 28 10 11 15 20 20 20 17 12 6 3 3 2 4 2 1 5 4 2 7 3 7 10 5 11 9 18 45 32 22 31 41 45 34
28 27 25 24 23 21 22 23 24 21 27 18 16 16 24 31 34 36 30 28 29 12 13 4 5 9 11 6 11 8 6 7 5 5 4 0 9 4 7 10 9 8 15 11 16 12 24 41 60 52 35 36 38 43
29 27 25 24 23 22 24 22 20 23 18 14 15 15 22 28 34 34 23 19 30 11 5 1 3 13 5 6 11 24 17 6 4 2 6 7 8 15 8 13 16 23 9 20 29 38 43 43 30 37 55 50 50 47
30 28 25 24 24 23 25 23 18 18 13 13 14 17 23 27 31 25 11 12 28 18 8 16 7 10 3 14 18 24 32 29 15 8 9 8 7 7 14 9 19 26 25 13 24 33 32 44 45 42 44 48 48 47
31 29 26 24 23 25 26 20 15 12 12 14 14 17 22 25 22 12 6 9 31 24 8 6 9 0 12 7 3 3 15 25 16 9 10 9 8 9 6 10 29 33 32 39 45 37 46 46 40 42 35 51 50 45
33 29 26 23 23 24 21 16 17 16 16 16 14 16 21 21 7 8 6 22 23 18 4 10 11 6 19 7 6 5 5 9 11 8 8 13 14 10 7 26 55 32 34 34 32 38 37 38 43 59 56 55 49 43
35 30 26 24 22 23 21 19 17 18 16 15 15 15 19 11 4 6 18 25 12 5 4 4 6 7 18 8 7 8 3 4 5 6 5 6 4 6 8 17 21 25 32 41 43 42 46 49 56 58 53 49 46 39
35 30 27 24 22 22 21 19 18 17 17 14 14 15 9 2 3 12 23 9 6 1 2 1 5 5 16 6 7 5 5 3 4 5 5 4 4 8 10 29 47 50 37 57 61 60 58 60 60 59 54 45 40 40
36 31 28 25 22 20 18 17 15 17 14 9 10 3 3 3 13 18 3 5 4 2 4 5 3 4 9 6 2 9 4 3 4 1 6 5 7 31 40 44 59 64 71 72 65 61 51 51 48 50 51 44 39 39
39 33 29 25 21 18 16 15 12 7 4 2 2 3 5 11 7 3 3 3 3 4 6 6 8 7 5 5 5 4 5 3 4 2 6 4 4 14 55 76 76 75 69 62 54 55 52 50 53 46 49 44 37 35
42 34 30 25 19 16 17 11 9 8 6 4 6 10 4 1 1 2 2 2 5 2 5 5 4 8 5 3 3 2 4 3 5 16 4 4 7 54 70 80 82 70 58 56 48 44 41 37 39 40 41 42 37 36
40 34 31 25 22 19 15 13 12 10 7 6 2 1 1 1 2 5 6 4 3 6 5 6 5 4 3 3 3 2 4 6 14 4 4 6 42 67 73 77 79 74 60 56 53 45 41 34 31 32 39 37 35 31
39 38 32 27 22 21 17 20 18 14 7 3 3 5 4 5 7 6 3 3 5 5 13 12 6 4 2 3 1 5 1 5 5 4 6 12 52 72 87 90 74 75 68 58 53 50 41 33 30 25 29 27 28 28
38 36 30 27 24 21 22 25 20 16 5 5 5 5 8 8 9 7 10 10 8 11 13 9 1 2 2 4 2 4 4 5 3 5 14 44 69 74 86 85 77 70 62 61 54 52 45 36 27 23 16 14 19 22
44 36 34 29 25 24 27 25 23 16 5 7 8 6 8 6 7 6 5 5 9 13 9 2 1 3 2 2 3 3 3 4 7 12 46 60 74 82 80 69 68 58 51 47 45 45 38 32 26 18 14 16 21 25
42 38 35 33 27 30 29 28 18 10 8 6 8 17 14 13 15 13 14 10 8 8 2 5 6 2 2 4 5 6 7 6 24 47 54 69 73 75 61 53 57 65 48 45 51 48 38 27 17 7 7 12 18 24
46 39 28 35 37 36 33 18 10 8 10 14 10 8 20 21 15 17 21 19 9 4 4 4 5 7 7 6 5 6 19 31 42 51 66 77 77 60 58 44 52 55 58 66 53 41 31 21 16 11 8 9 11 15
40 33 31 35 41 26 16 15 11 7 15 9 15 23 22 23 34 32 29 30 26 18 6 7 10 8 11 16 21 27 33 41 51 73 75 72 64 65 58 48 45 49 52 58 65 52 36 29 22 18 18 10 3 3
32 29 29 35 46 14 12 9 13 8 6 5 11 13 15 15 25 29 25 22 19 10 13 10 14 26 16 20 36 49 54 62 65 64 71 64 60 56 44 43 44 32 45 50 59 58 37 32 37 32 28 20 7 4
32 32 36 51 21 10 9 9 11 7 6 7 9 12 12 20 15 12 10 21 16 12 14 30 39 42 45 49 52 57 62 54 47 46 52 59 51 44 32 38 37 29 42 46 52 54 41 37 34 47 40 23 22 26
37 44 43 38 6 11 6 9 5 4 5 6 9 7 11 8 7 6 8 11 11 24 31 35 39 40 44 48 41 35 35 35 36 32 32 38 35 34 34 36 34 35 27 27 37 40 39 31 31 44 34 32 38 37
49 41 18 8 6 10 7 10 6 6 5 3 4 6 8 6 5 4 7 10 10 12 15 19 18 16 20 19 20 21 18 20 20 24 26 27 28 30 27 25 27 35 38 36 35 36 35 32 33 42 39 53 58 59
40 11 9 12 8 9 8 8 8 5 4 5 5 6 6 5 4 6 5 3 5 13 12 13 14 15 5 12 28 26 21 25 24 16 21 26 27 24 22 24 30 34 37 36 32 33 32 32 31 37 35 37 45 49
11 8 10 5 8 8 8 9 9 7 6 6 5 5 2 3 4 3 3 5 12 15 12 7 11 12 18 8 20 37 33 29 27 16 17 22 22 21 23 26 32 39 39 34 33 31 31 32 35 37 40 43 42 48
5 9 12 15 10 8 8 8 10 11 6 4 7 6 4 3 3 4 2 7 9 25 31 18 8 6 11 20 15 28 40 35 23 14 13 17 20 24 25 27 33 42 39 31 28 28 32 36 38 39 41 41 43 47
6 7 9 11 8 7 6 7 5 3 4 8 5 6 2 5 4 4 12 10 13 27 38 23 8 11 12 20 25 30 42 29 16 3 8 13 19 23 25 30 36 36 33 29 30 34 38 42 46 48 51 52 51 50
3 9 8 17 9 9 2 4 7 9 7 7 4 8 5 5 3 13 7 10 33 41 22 10 10 8 16 23 30 37 32 11 11 15 16 17 21 22 27 33 33 32 36 37 40 43 47 50 49 46 47 49 45 41
5 8 11 9 7 8 12 11 9 10 10 10 4 4 4 7 4 11 18 34 37 26 10 4 6 13 21 31 35 28 3 16 25 22 22 20 21 24 31 39 45 46 45 46 46 44 44 46 47 49 48 47 48 52
4 17 8 9 7 11 13 20 14 17 19 19 16 16 23 32 38 31 36 32 30 20 13 14 23 31 35 29 11 8 10 18 22 14 26 20 25 30 31 35 42 47 51 57 60 59 58 54 53 52 50 47 45 45
5 13 6 9 9 17 27 26 27 28 29 25 31 32 37 29 39 34 29 25 22 18 19 28 31 27 22 11 12 11 13 21 22 42 27 26 28 30 28 28 30 34 38 42 44 44 45 45 43 42 42 41 40 36
12 16 9 6 8 8 12 9 12 15 16 18 17 24 20 13 10 12 14 14 13 20 25 23 21 16 8 11 10 13 19 33 51 42 34 34 28 25 23 20 20 20 23 26 28 28 28 28 27 27 28 29 30 33
10 10 12 12 8 5 3 5 6 6 8 7 10 13 14 9 8 6 10 16 16 13 15 12 8 7 20 28 39 53 62 59 47 37 36 31 27 24 19 12 7 4 6 11 14 16 19 20 21 22 26 29 29 29
Wind_Direction_850mb
303 308 313 319 323 329 336 342 347 348 350 356 359 4 9 10 10 10 4 1 3 303 283 253 247 204 190 162 286 22 269 160 144 140 253 161 244 86 268 292 304 282 294 251 230 239 265 29 5 351 333 318 327 329
294 299 304 308 312 316 326 335 335 341 344 347 352 356 360 1 1 360 358 351 338 280 260 274 260 245 242 282 240 247 295 228 163 107 210 189 226 226 290 270 158 251 228 283 233 252 305 304 295 301 309 297 300 304
282 288 293 299 305 309 314 322 329 332 330 330 341 348 353 352 354 353 355 356 358 338 319 11 99 130 181 297 223 243 244 213 175 154 143 120 250 191 245 231 241 233 222 240 275 258 275 294 299 299 301 297 291 292
273 279 285 291 296 298 308 313 319 326 330 340 339 341 348 349 346 344 352 13 20 339 330 303 168 306 274 318 249 237 229 165 167 193 242 231 249 203 247 277 254 270 224 252 265 277 280 279 289 299 299 293 290 286
263 268 274 282 291 297 301 303 300 317 326 333 339 338 344 347 344 346 20 37 16 24 308 299 341 121 315 303 275 252 240 236 243 236 216 238 231 204 249 272 259 241 255 240 269 290 280 291 298 306 306 298 286 284
256 260 266 276 285 293 298 289 279 307 318 321 326 332 339 347 351 2 5 4 355 358 336 310 328 114 350 326 319 320 234 230 224 221 235 232 246 210 247 260 273 266 258 256 266 280 287 283 287 307 304 308 299 287
249 254 259 267 280 296 294 278 273 284 300 305 313 325 332 338 342 28 17 325 331 335 345 304 324 325 350 6 328 320 267 222 220 249 240 264 262 206 257 264 281 288 283 278 280 289 282 281 288 298 300 300 301 290
243 248 252 258 271 288 287 277 281 279 290 295 302 315 324 328 313 314 328 332 332 346 344 320 293 324 5 339 327 342 299 267 232 267 257 248 250 229 261 287 306 296 282 274 299 299 279 282 287 289 293 297 292 294
236 242 244 251 264 279 279 271 278 284 271 287 300 316 320 111 358 317 321 327 338 284 282 295 322 342 345 342 301 325 338 290 288 258 257 251 214 232 247 277 285 283 281 285 286 290 281 276 276 278 283 285 283 288
230 237 239 244 258 271 270 266 274 276 285 279 305 290 234 231 316 321 341 333 313 271 243 248 255 297 338 323 323 328 5 308 289 79 309 223 252 268 284 313 308 295 293 294 288 289 280 266 267 267 271 269 273 281
229 232 233 237 247 255 261 263 262 279 266 251 238 238 259 304 318 326 292 286 317 247 215 244 234 294 313 307 324 2 336 309 286 65 312 271 274 301 321 319 320 320 314 313 315 303 296 283 272 266 266 260 266 276
228 223 224 228 233 244 254 257 201 194 200 197 285 289 299 357 353 308 269 251 228 316 227 227 264 250 280 275 270 359 295 287 273 341 278 267 265 324 323 324 329 331 336 331 327 321 307 298 281 268 261 256 259 269
216 214 215 216 220 232 247 195 180 191 223 282 245 200 128 175 16 228 172 168 228 211 231 272 289 230 240 257 251 294 268 255 318 236 259 249 298 321 326 322 325 337 333 332 333 332 320 301 291 265 255 255 260 267
219 203 207 208 214 223 220 186 185 196 199 209 195 344 224 198 241 212 240 334 322 270 326 304 272 243 203 236 178 267 303 288 262 275 263 284 313 322 326 325 322 323 332 333 329 325 323 320 295 272 256 252 245 246
195 195 200 203 212 212 189 180 187 192 205 214 188 226 221 247 260 263 283 301 303 291 299 283 233 231 205 258 196 286 257 285 286 264 282 305 313 322 325 326 330 330 334 330 332 328 321 317 296 281 259 244 237 245
188 192 198 200 201 186 180 188 185 178 215 217 225 236 220 262 255 235 243 289 6 351 324 303 278 255 234 262 222 248 280 247 264 265 301 309 314 330 336 342 344 343 337 332 344 348 336 328 311 277 241 228 236 250
184 198 194 192 184 180 182 180 172 196 214 222 234 229 236 271 262 261 267 252 327 343 316 304 267 278 126 238 232 189 222 229 302 312 313 322 326 335 339 343 348 354 355 355 349 348 347 359 10 356 270 248 248 257
192 183 180 179 178 173 177 172 179 208 234 237 234 231 232 241 253 258 266 269 295 242 211 254 297 245 248 233 221 236 271 290 309 313 318 323 328 335 341 326 348 353 5 6 3 357 355 14 31 22 348 312 287 268
183 177 178 180 175 165 172 189 186 230 231 243 257 262 261 265 274 275 268 264 254 234 254 241 246 236 232 246 259 279 301 311 314 318 317 321 332 337 343 337 316 337 359 4 11 13 18 23 21 15 13 12 339 263
181 182 182 178 181 155 160 171 190 234 244 237 251 258 262 255 275 282 274 249 225 198 209 227 234 245 251 268 292 300 303 310 313 313 317 327 332 338 346 351 357 10 3 3 12 12 23 37 34 32 27 18 6 115
178 175 182 180 161 134 168 178 189 214 250 250 269 276 269 272 266 258 252 216 193 216 232 242 252 259 263 272 280 288 296 303 306 306 306 314 330 338 351 3 9 16 8 16 3 7 15 29 38 30 18 41 68 85
165 168 169 173 119 152 193 196 189 219 239 260 283 246 267 266 248 215 181 183 225 234 234 254 264 273 280 285 293 294 298 301 306 312 320 327 334 346 347 358 8 22 17 2 354 7 19 28 53 40 24 74 77 82
160 159 130 119 136 173 189 188 183 219 248 259 275 253 238 244 233 235 233 223 246 263 265 275 290 300 295 301 308 307 307 315 322 329 344 352 344 344 356 14 28 31 26 22 18 18 23 35 68 76 65 82 85 83
151 116 135 156 173 160 178 182 196 217 239 242 232 256 235 241 268 229 263 256 306 311 298 289 302 326 358 81 51 34 16 5 357 359 5 5 7 11 29 49 40 31 23 14 19 25 36 50 66 79 92 88 87 84
120 158 168 141 164 152 183 180 189 192 235 218 257 261 226 265 240 232 256 357 24 15 13 81 68 60 56 113 52 31 17 359 1 3 12 17 30 46 56 49 38 30 22 24 36 40 50 60 67 75 80 83 88 88
142 177 171 175 159 183 176 188 201 206 203 227 237 254 252 266 262 258 75 55 45 40 20 350 325 32 44 30 6 354 355 350 351 354 15 46 51 55 53 40 27 24 25 35 48 52 65 71 75 81 83 84 85 87
148 165 182 175 169 165 207 232 218 196 230 215 234 182 215 230 239 112 113 72 317 334 333 336 285 286 325 329 333 335 338 331 340 62 73 74 61 59 51 37 30 31 39 55 68 73 81 82 82 82 84 83 82 83
165 165 166 176 186 207 240 204 196 210 220 220 216 195 212 226 191 168 126 310 333 329 323 283 248 257 281 298 310 321 328 331 130 129 105 84 76 67 52 46 49 54 63 73 85 88 91 91 88 86 83 80 78 77
187 176 161 171 177 196 217 220 232 219 216 205 200 165 231 231 251 252 278 304 315 324 324 332 300 293 301 306 315 320 226 153 138 128 122 96 90 81 73 71 71 74 77 80 83 85 85 88 92 91 90 87 85 88
202 181 186 183 207 218 226 206 234 235 232 231 245 261 268 271 281 286 287 296 301 290 280 296 308 309 305 306 289 211 188 183 188 166 146 114 104 102 95 89 82 79 83 86 88 87 87 88 90 86 84 82 83 83
178 184 221 220 247 247 243 245 256 268 272 269 268 266 271 281 288 291 291 283 274 264 274 297 306 302 294 258 199 198 191 176 161 145 142 121 119 121 115 109 97 90 86 86 88 87 85 86 84 82 79 77 75 74
195 202 209 228 255 270 293 248 230 228 244 235 243 253 258 255 262 270 260 261 255 271 288 294 297 298 242 185 201 194 189 168 146 143 132 129 124 132 133 118 112 103 96 93 88 85 81 80 77 77 73 65 66 71
205 217 230 264 261 254 252 223 227 255 227 231 222 228 226 212 241 249 262 278 281 281 286 274 260 187 143 130 124 118 121 128 136 137 138 135 125 117 110 99 78 99 109 108 110 99 90 84 77 68 60 59 64 64